Flag for U.S.A. Weather past 2 weeks in El Paso, Texas, U.S.A.

Now
73 °F

Passing clouds.


Feels Like: 75 °F
Forecast: 57 / 93 °F
Wind: No wind

Location: El Paso International Airport

Current Time: May 27, 2015 at 12:11:15 AM

Latest Report: May 26, 2015 at 11:51 PM


Visibility: 10 mi

Pressure: 29.79 "Hg

Humidity: 17%

Dew point: 26 °F

Location of El PasoLocation

Historic Weather in El Paso — Graph

°F

El Paso temperature yesterday

Maximum temperature yesterday: 87 °F (at 3:51 PM)
Minimum temperature yesterday: 57 °F (at 5:51 AM)
Average temperature yesterday: 75 °F

Past Weeks' High & Low Weather Summary

 TemperatureHumidityPressure
High91 °F (May 18, 3:51 PM)93% (May 12, 10:51 PM)30.09 "Hg (May 12, 10:51 PM)
Low56 °F (May 13, 1:51 AM)4% (May 22, 6:51 PM)29.54 "Hg (May 15, 6:51 PM)
Average72 °F32%29.80 "Hg
* Reported May 11 10:51 PM — May 26 10:51 PM, El Paso, Weather by CustomWeather, © 2015

Note: Actual official high and low records may vary slightly from our data, if they occured in-between our weather recording intervals... More about our weather records

Advertising

El Paso weather history for previous 24 hours

 ConditionsComfort  
Time TempWeatherWind HumidityBarometerVisibility
10:51 PM
Tue, May 26
72 °FPassing clouds.6 mph19%29.80 "Hg10 mi
9:51 PM76 °FPassing clouds.5 mph16%29.79 "Hg10 mi
8:51 PM82 °FPartly sunny.No wind12%29.77 "Hg10 mi
7:51 PM82 °FPartly sunny.3 mph12%29.78 "Hg10 mi
6:51 PM86 °FScattered clouds.9 mph10%29.77 "Hg10 mi
5:51 PM85 °FPassing clouds.8 mph10%29.79 "Hg10 mi
4:51 PM87 °FScattered clouds.12 mph9%29.78 "Hg10 mi
3:51 PM87 °FPassing clouds.13 mph10%29.79 "Hg10 mi
2:51 PM85 °FScattered clouds.9 mph12%29.82 "Hg10 mi
1:51 PM83 °FScattered clouds.6 mph16%29.82 "Hg10 mi
12:51 PM82 °FPartly sunny.10 mph17%29.85 "Hg10 mi
11:51 AM83 °FPartly sunny.7 mph19%29.85 "Hg10 mi
10:51 AM77 °FScattered clouds.7 mph24%29.87 "Hg10 mi
9:51 AM75 °FPassing clouds.No wind27%29.88 "Hg10 mi
8:51 AM71 °FPassing clouds.No wind31%29.89 "Hg10 mi
7:51 AM66 °FPassing clouds.No wind39%29.89 "Hg10 mi
6:51 AM60 °FPassing clouds.3 mph44%29.88 "Hg10 mi
5:51 AM57 °FPassing clouds.No wind47%29.87 "Hg10 mi
4:51 AM64 °FClear.6 mph38%29.83 "Hg10 mi
3:51 AM65 °FClear.No wind36%29.82 "Hg10 mi
2:51 AM62 °FClear.3 mph38%29.82 "Hg10 mi
1:51 AM68 °FClear.10 mph31%29.80 "Hg10 mi
12:51 AM70 °FClear.6 mph25%29.79 "Hg10 mi
Weather by CustomWeather, © 2015

See weather overviewHow to use our weather pages